sat.trackr.live / text

‹ back to catalog

STARLINK-37691

NORAD 69205 · 2026-114Z

PAYLOAD ACTIVE UNKNOWN

§ Identity

Operator
Country
US
Launch date
2026-05-25
Launch site
AFETR
Launch vehicle
Mass (kg)
RCS (m²)

Purposes: comms

External: N2YO · Heavens-Above · Gunter

§ Orbital elements

Epoch: 2026-09-20T00:08:22.201728Z

Period
93.85 min
Inclination
53.1585°
Eccentricity
0.0001420
Mean motion
15.34403630 rev/d
Perigee alt
461.7 km
Apogee alt
463.7 km
Semi-major
6,840.8 km
B*
5.2560e-4
RAAN
115.7873°
Arg perigee
46.1204°
Mean anomaly
313.9916°
Rev number
1,937

§ Raw data

STARLINK-376911 69205U 26114Z   26263.00581252  .00017425  00000+0  52560-3 0  99972 69205  53.1585 115.7873 0001420  46.1204 313.9916 15.34403630 19378

JSON: /api/v1/satellites/69205 · /tle

For live sub-satellite position, see the globe view (requires WebGL).

§ Visibility from observer

Set your observer location to see the next 7 days of passes ≥ 10°. The values pass through the URL so the page stays shareable.

No JS? Fill the form by hand. The geolocation button needs JavaScript.